Weather History for Palma de Mallorca, Spain

Change the Weather History Date:

Saturday, February 12, 2011

  Actual Average Record
Temperature  
Mean Temperature 49 °F -  
Max Temperature 59 °F 59 °F 69 °F (2007)
Min Temperature 39 °F 40 °F 30 °F (2012)
Degree Days  
Heating Degree Days 16    
Moisture  
Dew Point 46 °F    
Average Humidity 88    
Maximum Humidity 100    
Minimum Humidity 63    
Precipitation  
Precipitation 0.00 in 0.05 in - ()
Sea Level Pressure  
Sea Level Pressure 30.12 in    
Wind  
Wind Speed 3 mph ()    
Max Wind Speed 10 mph    
Max Gust Speed -    
Visibility 6.2 miles    
Events      
Averages and records for this station are not official NWS values.
T = Trace of Precipitation, MM = Missing Value Source: Averaged Metar Reports

Daily Weather History Graph

Daily Weather History Graph

Search for Another Location

Airport:

Trip Planner

Search our weather history database for the weather conditions in past years. The results will help you decide how hot, cold, wet, or windy it might be!

Date:

Astronomy

Feb. 12, 2011 Rise Set
Actual Time 7:45 AM CET 6:21 PM CET
Civil Twilight 7:17 AM CET 6:49 PM CET
Nautical Twilight 6:46 AM CET 7:21 PM CET
Astronomical Twilight 6:14 AM CET 7:52 PM CET
Moon 12:15 PM CET (2/12) 2:40 AM CET (2/12)
Length of Visible Light 11h 31m
Length of Day
10h 36m
First Quarter, 62% of the Moon is Illuminated
Feb 12
First Quarter
Feb 18
Full
Feb 25
Last Quarter
Mar 4
New
Mar 13
First Quarter

Hourly Weather History & Observations

Time (CET) Temp. Windchill Dew Point Humidity Pressure Visibility Wind Dir Wind Speed Gust Speed Precip Events Conditions
12:00 AM 44.6 °F - 42.8 °F 93% 30.15 in 6.2 mi Variable 1.2 mph - N/A   Mostly Cloudy
12:30 AM 44.6 °F - 44.6 °F 100% 30.15 in 6.2 mi Calm Calm - N/A   Mostly Cloudy
1:00 AM 46 °F - 45 °F 96% 30.16 in 11 mi ENE 1.2 mph - -   Mostly Cloudy
1:00 AM 46.4 °F - 44.6 °F 93% 30.15 in 6.2 mi Calm Calm - N/A   Mostly Cloudy
1:30 AM 46.4 °F - 46.4 °F 100% 30.15 in 6.2 mi North 2.3 mph - N/A   Mostly Cloudy
2:00 AM 48.2 °F - 48.2 °F 100% 30.12 in 6.2 mi North 2.3 mph - N/A   Mostly Cloudy
2:30 AM 48.2 °F - 46.4 °F 93% 30.12 in 6.2 mi NNE 3.5 mph - N/A   Mostly Cloudy
3:00 AM 48.2 °F - 46.4 °F 93% 30.12 in 6.2 mi Calm Calm - N/A   Mostly Cloudy
3:30 AM 48.2 °F - 46.4 °F 93% 30.12 in 6.2 mi Variable 1.2 mph - N/A   Mostly Cloudy
4:00 AM 46.4 °F 45.2 °F 46.4 °F 100% 30.12 in 6.2 mi NNE 3.5 mph - N/A   Scattered Clouds
4:30 AM 44.6 °F 40.7 °F 42.8 °F 93% 30.09 in 6.2 mi ENE 6.9 mph - N/A   Scattered Clouds
5:00 AM 42.8 °F 39.3 °F 42.8 °F 100% 30.09 in 6.2 mi ENE 5.8 mph - N/A   Scattered Clouds
5:30 AM 42.8 °F 41.1 °F 42.8 °F 100% 30.09 in 6.2 mi ENE 3.5 mph - N/A   Partly Cloudy
6:00 AM 41.0 °F 38.0 °F 41.0 °F 100% 30.09 in 5.0 mi NE 4.6 mph - N/A   Partly Cloudy
6:30 AM 41.0 °F - 41.0 °F 100% 30.09 in 5.0 mi Variable 2.3 mph - N/A   Partly Cloudy
7:00 AM 41 °F - 41 °F 100% 30.13 in 4 mi Calm Calm - -   Mist
7:00 AM 41.0 °F - 41.0 °F 100% 30.12 in 5.0 mi Calm Calm - N/A   Partly Cloudy
7:30 AM 39.2 °F - 39.2 °F 100% 30.12 in 6.2 mi Calm Calm - N/A   Partly Cloudy
8:00 AM 39.2 °F - 39.2 °F 100% 30.12 in - Variable 2.3 mph - N/A   Clear
8:30 AM 39.2 °F - 39.2 °F 100% 30.12 in - Variable 2.3 mph - N/A   Clear
9:00 AM 42.8 °F 41.1 °F 42.8 °F 100% 30.15 in - NE 3.5 mph - N/A   Clear
9:30 AM 46.4 °F - 46.4 °F 100% 30.15 in - NE 2.3 mph - N/A   Clear
10:00 AM 50.0 °F - 48.2 °F 94% 30.15 in 5.6 mi NNE 3.5 mph - N/A   Scattered Clouds
10:30 AM 51.8 °F - 48.2 °F 88% 30.15 in 5.6 mi NNE 3.5 mph - N/A   Mostly Cloudy
11:00 AM 55.4 °F - 50.0 °F 82% 30.15 in 5.6 mi Variable 1.2 mph - N/A   Scattered Clouds
11:30 AM 55.4 °F - 50.0 °F 82% 30.15 in 5.6 mi WNW 1.2 mph - N/A   Scattered Clouds
12:00 PM 57.2 °F - 48.2 °F 72% 30.15 in 5.6 mi Variable 2.3 mph - N/A   Scattered Clouds
12:30 PM 57.2 °F - 48.2 °F 72% 30.15 in 6.2 mi WSW 4.6 mph - N/A   Scattered Clouds
1:00 PM 58 °F - 49 °F 63% 30.15 in 9 mi SW 5.8 mph - -   Partly Cloudy
1:00 PM 57.2 °F - 48.2 °F 72% 30.12 in 6.2 mi SSW 6.9 mph - N/A   Partly Cloudy
1:30 PM 59.0 °F - 48.2 °F 67% 30.12 in 6.2 mi South 8.1 mph - N/A   Partly Cloudy
2:00 PM 59.0 °F - 48.2 °F 67% 30.12 in 6.2 mi SSW 8.1 mph - N/A   Partly Cloudy
2:30 PM 59.0 °F - 48.2 °F 67% 30.12 in 6.2 mi SW 9.2 mph - N/A   Partly Cloudy
3:00 PM 59.0 °F - 50.0 °F 72% 30.09 in 6.2 mi SW 9.2 mph - N/A   Partly Cloudy
3:30 PM 59.0 °F - 50.0 °F 72% 30.09 in 6.2 mi SSW 10.4 mph - N/A   Partly Cloudy
4:00 PM 57.2 °F - 50.0 °F 77% 30.09 in 6.2 mi SW 10.4 mph - N/A   Partly Cloudy
4:30 PM 57.2 °F - 50.0 °F 77% 30.09 in 6.2 mi SSW 9.2 mph - N/A   Partly Cloudy
5:00 PM 57.2 °F - 50.0 °F 77% 30.09 in 6.2 mi SSW 9.2 mph - N/A   Partly Cloudy
5:30 PM 57.2 °F - 50.0 °F 77% 30.09 in 6.2 mi SSW 8.1 mph - N/A   Partly Cloudy
6:00 PM 55.4 °F - 50.0 °F 82% 30.09 in 6.2 mi South 4.6 mph - N/A   Partly Cloudy
6:30 PM 55.4 °F - 48.2 °F 77% 30.09 in 6.2 mi Variable 2.3 mph - N/A   Partly Cloudy
7:00 PM 54 °F - 49 °F 76% 30.12 in 9 mi SW 5.8 mph - -   Scattered Clouds
7:00 PM 55.4 °F - 48.2 °F 77% 30.09 in 6.2 mi SSE 1.2 mph - N/A   Partly Cloudy
7:30 PM 53.6 °F - 48.2 °F 82% 30.12 in 6.2 mi SE 2.3 mph - N/A   Partly Cloudy
8:00 PM 48.2 °F - 44.6 °F 87% 30.12 in 6.2 mi SE 3.5 mph - N/A   Partly Cloudy
8:30 PM 48.2 °F - 46.4 °F 93% 30.12 in 6.2 mi SSE 2.3 mph - N/A   Partly Cloudy
9:00 PM 46.4 °F - 44.6 °F 93% 30.12 in - East 1.2 mph - N/A   Clear
9:30 PM 46.4 °F - 44.6 °F 93% 30.12 in - Calm Calm - N/A   Clear
10:00 PM 44.6 °F - 44.6 °F 100% 30.12 in - Variable 1.2 mph - N/A   Clear
10:30 PM 44.6 °F - 42.8 °F 93% 30.12 in - Calm Calm - N/A   Clear
11:00 PM 41.0 °F - 41.0 °F 100% 30.12 in 5.0 mi Calm Calm - N/A   Unknown
11:30 PM 41.0 °F - 41.0 °F 100% 30.12 in 4.3 mi Calm Calm - N/A   Unknown